This demonstration page uses our WeatherBlox Daily Observations layout. Learn more.

Left ArrowRight Arrow

38.88101, -77.10428

Hourly Observations for January 6, 2022

Temp ( °F °C ) Dew Point ( °F °C ) Humidity (%) Winds ( mph kmh ) Pressure ( in mb ) Visibility ( mi km ) Precip ( " mm )
12:52 am 00:52 Cloudy 40 4.4 32 0 73 73 SSW 6 9 29.77 1008 10 16 0.00 0.00
1:52 am 01:52 Cloudy 41 5 32 0 70 70 Calm 29.80 1009 10 16 0.00 0.00
2:52 am 02:52 Cloudy 38 3.3 31 -0.6 76 76 Calm 29.83 1010 10 16 0.00 0.00
3:52 am 03:52 Cloudy 38 3.3 32 0 79 79 W 5 7 29.84 1010 10 16 0.00 0.00
4:52 am 04:52 Cloudy 42 5.6 28 -2.2 58 58 W 8 13 29.85 1011 10 16 0.00 0.00
5:52 am 05:52 Mostly Cloudy 37 2.8 30 -1.1 76 76 S 3 6 29.89 1012 10 16 0.00 0.00
6:52 am 06:52 Mostly Cloudy 39 3.9 28 -2.2 65 65 Calm 29.92 1013 10 16 0.00 0.00
7:52 am 07:52 Mostly Cloudy 39 3.9 25 -3.9 57 57 N 5 7 29.96 1015 10 16 0.00 0.00
8:52 am 08:52 Mostly Cloudy 42 5.6 19 -7.2 40 40 NNW 9 15 29.99 1016 10 16 0.00 0.00
9:52 am 09:52 Mostly Cloudy 42 5.6 21 -6.1 43 43 N 9 15 30.01 1016 10 16 0.00 0.00
10:52 am 10:52 Cloudy 41 5 21 -6.1 45 45 N 12 19 30.02 1017 10 16 0.00 0.00
11:52 am 11:52 Cloudy 42 5.6 18 -7.8 38 38 N 7 11 29.99 1016 10 16 0.00 0.00
12:52 pm 12:52 Cloudy 43 6.1 17 -8.3 35 35 N 8 13 29.96 1015 10 16 0.00 0.00
1:52 pm 13:52 Cloudy 43 6.1 19 -7.2 38 38 N 9 15 29.94 1014 10 16 0.00 0.00
2:52 pm 14:52 Cloudy 42 5.6 19 -7.2 40 40 N 7 11 29.93 1014 10 16 0.00 0.00
3:52 pm 15:52 Sunny 41 5 22 -5.6 47 47 ENE 8 13 29.96 1014 10 16 0.00 0.00
4:52 pm 16:52 Cloudy 40 4.4 22 -5.6 49 49 NE 9 15 29.95 1014 10 16 0.00 0.00
5:52 pm 17:52 Cloudy 40 4.4 21 -6.1 47 47 ENE 8 13 29.96 1015 10 16 0.00 0.00
6:52 pm 18:52 Cloudy 39 3.9 21 -6.1 48 48 NE 8 13 29.94 1014 10 16 0.00 0.00
7:52 pm 19:52 Cloudy 39 3.9 22 -5.6 50 50 ENE 9 15 29.89 1012 10 16 0.00 0.00
8:52 pm 20:52 Cloudy 38 3.3 22 -5.6 52 52 NE 14 22 29.86 1011 10 16 0.00 0.00
9:52 pm 21:52 Cloudy 37 2.8 23 -5 57 57 ENE 12 19 29.84 1011 10 16 0.00 0.00
10:52 pm 22:52 Cloudy 37 2.8 24 -4.4 59 59 NE 10 17 29.84 1010 10 16 0.00 0.00
11:52 pm 23:52 Cloudy 36 2.2 21 -6.1 55 55 NE 16 26 29.79 1009 10 16 0.00 0.00

Powered by AerisWeather